Regional Weather Roundup
Issued by NWS Nashville, TN

Home | Current Version | Previous Version | Text Only | Print | Product List | Glossary On
Versions: 1 2 3 4 5 6 7 8 9 10 11 12 13 14 15 16 17 18 19 20 21 22 23 24 25 26 27 28 29 30 31 32 33 34 35 36 37 38 39 40 41 42 43 44 45 46 47 48 49 50
000
ASUS44 KOHX 120110
RWROHX
MIDDLE TENNESSEE HOURLY WEATHER ROUNDUP
NATIONAL WEATHER SERVICE NASHVILLE TN
700 PM CST THU FEB 11 2016

NOTE: "FAIR" INDICATES FEW OR NO CLOUDS BELOW 12,000 FEET WITH
NO SIGNIFICANT WEATHER AND/OR OBSTRUCTIONS TO VISIBILITY.

* THESE REPORTS ARE NOT UNDER NWS QUALITY CONTROL AND MAY NOT
  REPORT WEATHER SUCH AS PRECIPITATION AND FOG.


TNZ005>011-023>034-057-059-062>066-078-080-120200
...NORTHERN MIDDLE TENNESSEE...

CITY           SKY/WX    TMP DP  RH WIND       PRES   REMARKS
CLARKSVILLE    PTCLDY    33  20  58 N9        30.30R WCI  25
CROSSVILLE     CLEAR     32  19  58 N5        30.20R WCI  27
DICKSON        PTCLDY    34  21  60 NE6       30.24S WCI  29
LEBANON        CLEAR     34  21  59 N5        30.24S WCI  30
LIVINGSTON     CLEAR     31  18  58 N5        30.24R WCI  26
NASHVILLE      PTCLDY    34  21  59 NE7       30.27S WCI  28
PORTLAND       CLEAR    N/A N/A N/A NE3       30.26
ROCKWOOD       CLEAR     31  19  61 N3        30.20R
SMYRNA         CLEAR     34  23  64 N7        30.28S WCI  28
SPARTA         CLEAR     27  23  86 CALM      30.22S
$$
TNZ056-058-060-061-075>077-079-093>097-120200
...SOUTHERN MIDDLE TENNESSEE...

CITY           SKY/WX    TMP DP  RH WIND       PRES   REMARKS
COLUMBIA       CLEAR     36  25  64 NE3       30.22S
FAYETTEVILLE   CLEAR     37  25  60 N7        30.22R WCI  32
LEWISBURG      CLEAR     33  21  61 N3        30.24R
MCMINNVILLE    CLEAR     34  23  64 CALM      30.23S
SHELBYVILLE    CLEAR     36  25  64 N6        30.25S WCI  31
TULLAHOMA      CLEAR     34  23  64 CALM      30.22S
WINCHESTER     CLEAR     36  25  64 N6        30.22R WCI  31
$$


...KEY TO REMARKS...
VSB - VISIBILITY IN MILES
WCI - WIND CHILL INDEX
HX  - HEAT INDEX




USA.gov is the U.S. government's official web portal to all federal, state and local government web resources and services.